Home   Weather   Erfurt   Past weeks

Flag for Germany Past Weather in Erfurt, Thuringia, Germany — Yesterday and Last 2 Weeks

45 °F

Partly sunny.

Feels Like: 38 °F
Forecast: 40 / 48 °F
Wind: 13 mph from West

Location: Erfurt-Bindersleben

Current Time: Oct 21, 2016 at 5:04:57 PM

Latest Report: Oct 21, 2016 at 4:20 PM

Visibility: N/A

Pressure: 29.92 "Hg

Humidity: 81%

Dew Point: 39 °F

Location of ErfurtLocation

Past Weather in Erfurt — Graph


Erfurt Temperature Yesterday

Maximum temperature yesterday: 46 °F (at 12:20 PM)
Minimum temperature yesterday: 41 °F (at 6:20 AM)
Average temperature yesterday: 43 °F

High & Low Weather Summary for the Past Weeks

High63 °F (Oct 16, 1:20 PM)100% (Oct 6, 4:50 PM)30.27 "Hg (Oct 6, 4:50 PM)
Low39 °F (Oct 9, 7:50 AM)62% (Oct 9, 2:20 PM)29.74 "Hg (Oct 15, 1:20 AM)
Average46 °F92%30.07 "Hg
* Reported Oct 6 3:20 PM — Oct 21 3:50 PM, Erfurt, Weather by CustomWeather, © 2016

Note: Actual official high and low records may vary slightly from our data, if they occured in-between our weather recording intervals... More about our weather records


Erfurt Weather History for the Previous 24 Hours

Scroll right to see more
Time TempWeatherWind HumidityBarometerVisibility
3:50 PM
Fri, Oct 21
45 °FBroken clouds.15 mph81%29.89 "HgN/A
3:20 PM45 °FBroken clouds.13 mph81%29.89 "HgN/A
2:50 PM45 °FBroken clouds.12 mph81%29.89 "HgN/A
2:20 PM45 °FScattered clouds.13 mph81%29.89 "HgN/A
1:50 PM45 °FPartly sunny.13 mph87%29.92 "HgN/A
1:20 PM45 °FSprinkles. Broken clouds.12 mph81%29.92 "HgN/A
12:50 PM45 °FPartly sunny.10 mph81%29.92 "HgN/A
12:20 PM45 °FBroken clouds.9 mph81%29.92 "HgN/A
11:50 AM45 °FBroken clouds.10 mph87%29.92 "HgN/A
11:20 AM45 °FPartly sunny.12 mph81%29.92 "HgN/A
10:50 AM43 °FPartly sunny.10 mph87%29.89 "HgN/A
10:20 AM41 °FLight rain. Partly sunny.9 mph93%29.89 "HgN/A
9:50 AM41 °FMore clouds than sun.8 mph93%29.89 "HgN/A
9:20 AM41 °FLight rain. More clouds than sun.7 mph93%29.89 "HgN/A
8:50 AM41 °FLight rain. More clouds than sun.7 mph93%29.89 "HgN/A
8:20 AM39 °FLight rain. More clouds than sun.7 mph100%29.89 "Hg5 mi
7:50 AM41 °FLight rain. More clouds than sun.7 mph93%29.89 "Hg5 mi
7:20 AM41 °FLight rain. Mostly cloudy.8 mph93%29.89 "Hg5 mi
6:50 AM41 °FLight rain. Mostly cloudy.6 mph93%29.89 "Hg4 mi
6:20 AM41 °FLight rain. Passing clouds.6 mph100%29.89 "Hg4 mi
5:50 AM41 °FLight rain. Partly cloudy.3 mph100%29.86 "Hg4 mi
5:20 AM41 °FLight rain. Partly cloudy.3 mph100%29.86 "Hg4 mi
4:50 AM41 °FLight rain. Fog.3 mph100%29.86 "Hg2 mi
4:20 AM41 °FLight rain. Fog.6 mph100%29.89 "Hg2 mi
3:50 AM41 °FFog.6 mph100%29.89 "Hg2 mi
3:20 AM41 °FFog.7 mph100%29.89 "Hg2 mi
2:50 AM41 °FFog.7 mph100%29.89 "Hg2 mi
2:20 AM41 °FFog.7 mph100%29.86 "Hg3 mi
1:50 AM41 °FPartly cloudy.6 mph100%29.89 "Hg4 mi
1:20 AM41 °FFog.5 mph100%29.89 "Hg3 mi
12:50 AM41 °FFog.6 mph100%29.89 "Hg2 mi
12:20 AM41 °FFog.6 mph100%29.89 "Hg3 mi
11:50 PM
Thu, Oct 20
41 °FFog.6 mph100%29.89 "Hg3 mi
11:20 PM41 °FPartly cloudy.6 mph100%29.89 "Hg4 mi
10:50 PM41 °FPartly cloudy.5 mph100%29.89 "Hg5 mi
10:20 PM43 °FPartly cloudy.3 mph93%29.89 "HgN/A
9:50 PM41 °FPartly cloudy.2 mph100%29.89 "HgN/A
9:20 PM41 °FPassing clouds.3 mph100%29.89 "HgN/A
8:50 PM43 °FPartly cloudy.5 mph93%29.89 "HgN/A
8:20 PM41 °FPartly cloudy.3 mph100%29.89 "HgN/A
7:50 PM41 °FPassing clouds.2 mph93%29.89 "HgN/A
7:20 PM41 °FPassing clouds.2 mph100%29.89 "HgN/A
6:50 PM41 °FLight rain. Partly cloudy.3 mph100%29.89 "HgN/A
6:20 PM43 °FLight rain. Passing clouds.3 mph87%29.89 "HgN/A
5:50 PM43 °FLight rain. Partly sunny.5 mph93%29.89 "HgN/A
5:20 PM43 °FLight rain. Partly sunny.6 mph93%29.89 "HgN/A
Weather by CustomWeather, © 2016

See weather overviewHow to use our weather pages